Date String (YYYY-MM-DD hh:mm:ss) UTC,Instrument flags,Ambient pressure (hPa),Sample flow (lpm),Bypass flow (lpm),Sample temperature (°C),Ambient temperature (°C),ASC tube jacket temperature (°C),LED temperature (°C),Box temperature (°C),Sample RH (%),Span deviation,Mass concentration (μg/m³),Mass concentration (μg/m³),Mass concentration (μg/m³)
DateTimeUTC,F1_M11,P_M11,Q1_M11,Q2_M11,T1_M11,T2_M11,T3_M11,T4_M11,T5_M11,U1_M11,ZSPAN_M11,X0_M11,X2_M11,X1_M11
2021-10-21 21:00:00,,0831.6,4.99,0.00,26.7,26.0,00.0,35.5,28.6,10.5,0000.0,0011.37,0003.49,0002.39
2021-10-21 21:01:00,,0831.6,4.99,0.00,26.7,26.1,00.0,35.5,28.6,10.6,0000.0,0011.66,0003.45,0002.36
2021-10-21 21:02:00,,0831.7,5.01,0.00,26.7,26.1,00.0,35.6,28.6,10.7,0000.0,0011.96,0003.46,0002.35
2021-10-21 21:03:00,,0831.7,4.99,0.00,26.7,26.1,00.0,35.6,28.7,10.6,0000.0,0011.75,0003.52,0002.34
2021-10-21 21:04:00,,0831.8,5.00,0.00,26.7,26.1,00.0,35.6,28.6,10.6,0000.0,0011.35,0003.54,0002.35
2021-10-21 21:05:00,,0831.7,5.01,0.00,26.7,26.1,00.0,35.6,28.7,10.6,0000.0,0011.80,0003.50,0002.35
2021-10-21 21:06:00,,0831.7,4.99,0.00,26.7,26.1,00.0,35.6,28.7,10.6,0000.0,0011.39,0003.48,0002.34
2021-10-21 21:07:00,,0831.8,5.01,0.00,26.8,26.1,00.0,35.6,28.6,10.6,0000.0,0011.34,0003.49,0002.36
2021-10-21 21:08:00,,0831.7,5.00,0.00,26.8,26.2,00.0,35.6,28.7,11.2,0000.0,0010.99,0003.49,0002.37
2021-10-21 21:09:00,,0831.6,4.99,0.00,26.8,26.2,00.0,35.7,28.7,11.9,0000.0,0010.88,0003.46,0002.36
2021-10-21 21:10:00,,0831.7,5.00,0.00,26.8,26.2,00.0,35.7,28.7,11.9,0000.0,0010.99,0003.42,0002.33
2021-10-21 21:11:00,,0831.6,5.00,0.00,26.8,26.2,00.0,35.7,28.7,11.7,0000.0,0011.37,0003.41,0002.32
2021-10-21 21:12:00,,0831.6,5.01,0.00,26.8,26.2,00.0,35.7,28.7,11.8,0000.0,0010.98,0003.43,0002.32
2021-10-21 21:13:00,,0831.6,5.00,0.00,26.8,26.2,00.0,35.7,28.7,11.8,0000.0,0010.45,0003.44,0002.32
2021-10-21 21:14:00,,0831.6,5.00,0.00,26.9,26.2,00.0,35.7,28.8,11.7,0000.0,0009.85,0003.39,0002.31
2021-10-21 21:15:00,,0831.6,5.01,0.00,26.9,26.2,00.0,35.8,28.8,11.4,0000.0,0009.73,0003.37,0002.28
2021-10-21 21:16:00,,0831.5,4.99,0.00,26.9,26.3,00.0,35.8,28.8,11.1,0000.0,0008.82,0003.41,0002.26
2021-10-21 21:17:00,,0831.5,5.01,0.00,26.9,26.3,00.0,35.8,28.8,11.2,0000.0,0009.07,0003.47,0002.26
2021-10-21 21:18:00,,0831.6,5.00,0.00,26.9,26.4,00.0,35.8,28.8,11.5,0000.0,0009.59,0003.51,0002.24
2021-10-21 21:19:00,,0831.6,5.00,0.00,27.0,26.4,00.0,35.8,28.9,11.7,0000.0,0010.90,0003.52,0002.22
2021-10-21 21:20:00,,0831.5,5.01,0.00,27.0,26.4,00.0,35.9,29.0,11.6,0000.0,0011.31,0003.52,0002.24
2021-10-21 21:21:00,,0831.5,4.98,0.00,27.0,26.4,00.0,35.9,29.0,11.6,0000.0,0011.62,0003.54,0002.27
2021-10-21 21:22:00,,0831.5,5.01,0.00,27.0,26.4,00.0,35.9,29.0,11.8,0000.0,0012.34,0003.57,0002.29
2021-10-21 21:23:00,,0831.5,5.00,0.00,27.1,26.5,00.0,35.9,29.0,11.8,0000.0,0012.46,0003.62,0002.30
2021-10-21 21:24:00,,0831.5,5.01,0.00,27.1,26.5,00.0,35.9,29.0,11.6,0000.0,0012.87,0003.62,0002.31
2021-10-21 21:25:00,,0831.5,4.99,0.00,27.1,26.5,00.0,35.9,29.0,11.5,0000.0,0013.97,0003.66,0002.33
2021-10-21 21:26:00,,0831.5,4.99,0.00,27.1,26.5,00.0,36.0,29.0,11.6,0000.0,0014.28,0003.66,0002.36
2021-10-21 21:27:00,,0831.5,5.01,0.00,27.1,26.5,00.0,36.0,29.0,11.4,0000.0,0014.39,0003.69,0002.37
2021-10-21 21:28:00,,0831.5,5.00,0.00,27.1,26.5,00.0,36.0,29.0,11.3,0000.0,0014.37,0003.68,0002.39
2021-10-21 21:29:00,,0831.5,5.00,0.00,27.1,26.5,00.0,36.0,29.0,11.3,0000.0,0014.17,0003.69,0002.43
2021-10-21 21:30:00,,0831.5,4.99,0.00,27.1,26.5,00.0,36.0,29.0,11.6,0000.0,0013.16,0003.70,0002.45
2021-10-21 21:31:00,,0831.6,5.00,0.00,27.1,26.5,00.0,36.0,29.0,11.7,0000.0,0012.89,0003.77,0002.47
2021-10-21 21:32:00,,0831.5,4.99,0.00,27.2,26.6,00.0,36.0,29.1,11.4,0000.0,0012.31,0003.77,0002.50
2021-10-21 21:33:00,,0831.5,5.00,0.00,27.2,26.6,00.0,36.1,29.1,11.3,0000.0,0011.20,0003.73,0002.50
2021-10-21 21:34:00,,0831.5,5.01,0.00,27.2,26.6,00.0,36.1,29.2,11.3,0000.0,0010.67,0003.69,0002.52
2021-10-21 21:35:00,,0831.5,5.00,0.00,27.2,26.6,00.0,36.1,29.2,11.0,0000.0,0010.50,0003.70,0002.54
2021-10-21 21:36:00,,0831.6,5.02,0.00,27.2,26.6,00.0,36.1,29.2,10.8,0000.0,0009.52,0003.70,0002.54
2021-10-21 21:37:00,,0831.5,5.00,0.00,27.3,26.6,00.0,36.1,29.2,10.7,0000.0,0009.47,0003.71,0002.54
2021-10-21 21:38:00,,0831.5,4.99,0.00,27.3,26.6,00.0,36.1,29.2,10.7,0000.0,0009.82,0003.70,0002.57
2021-10-21 21:39:00,,0831.5,5.01,0.00,27.3,26.7,00.0,36.2,29.2,10.5,0000.0,0009.63,0003.66,0002.56
2021-10-21 21:40:00,,0831.5,5.00,0.00,27.3,26.7,00.0,36.2,29.2,10.6,0000.0,0009.98,0003.64,0002.55
2021-10-21 21:41:00,,0831.4,5.00,0.00,27.3,26.7,00.0,36.2,29.2,10.5,0000.0,0011.00,0003.66,0002.56
2021-10-21 21:42:00,,0831.3,4.99,0.00,27.3,26.7,00.0,36.2,29.2,10.5,0000.0,0012.12,0003.58,0002.56
2021-10-21 21:43:00,,0831.3,4.98,0.00,27.3,26.7,00.0,36.2,29.2,10.6,0000.0,0012.48,0003.63,0002.54
2021-10-21 21:44:00,,0831.3,5.01,0.00,27.4,26.8,00.0,36.2,29.3,10.7,0000.0,0012.65,0003.67,0002.53
2021-10-21 21:45:00,,0831.3,4.99,0.00,27.4,26.8,00.0,36.2,29.2,10.9,0000.0,0012.55,0003.66,0002.52
2021-10-21 21:46:00,,0831.2,5.01,0.00,27.4,26.8,00.0,36.3,29.2,10.6,0000.0,0012.66,0003.63,0002.52
2021-10-21 21:47:00,,0831.2,5.00,0.00,27.4,26.8,00.0,36.3,29.2,10.8,0000.0,0012.95,0003.63,0002.52
2021-10-21 21:48:00,,0831.2,4.99,0.00,27.4,26.8,00.0,36.3,29.3,10.8,0000.0,0012.42,0003.63,0002.52
2021-10-21 21:49:00,,0831.2,5.00,0.00,27.4,26.8,00.0,36.3,29.3,10.7,0000.0,0012.02,0003.59,0002.49
2021-10-21 21:50:00,,0831.2,5.00,0.00,27.4,26.8,00.0,36.3,29.3,10.6,0000.0,0012.12,0003.64,0002.50
2021-10-21 21:51:00,,0831.2,4.99,0.00,27.4,26.8,00.0,36.4,29.3,10.6,0000.0,0011.86,0003.66,0002.51
2021-10-21 21:52:00,,0831.3,5.00,0.00,27.5,26.9,00.0,36.4,29.3,10.8,0000.0,0011.59,0003.63,0002.49
2021-10-21 21:53:00,,0831.2,5.00,0.00,27.5,26.9,00.0,36.4,29.3,10.8,0000.0,0010.94,0003.61,0002.46
2021-10-21 21:54:00,,0831.2,4.98,0.00,27.5,26.9,00.0,36.4,29.4,10.8,0000.0,0010.90,0003.57,0002.47
2021-10-21 21:55:00,,0831.3,5.01,0.00,27.5,26.9,00.0,36.4,29.4,10.9,0000.0,0010.98,0003.54,0002.47
2021-10-21 21:56:00,,0831.3,5.00,0.00,27.5,27.0,00.0,36.4,29.4,11.0,0000.0,0011.11,0003.56,0002.47
2021-10-21 21:57:00,,0831.2,5.00,0.00,27.5,26.9,00.0,36.4,29.4,11.0,0000.0,0010.61,0003.58,0002.48
2021-10-21 21:58:00,,0831.2,5.00,0.00,27.5,27.0,00.0,36.5,29.4,11.1,0000.0,0010.40,0003.59,0002.49
2021-10-21 21:59:00,,0831.2,5.01,0.00,27.5,27.0,00.0,36.5,29.4,10.9,0000.0,0010.60,0003.60,0002.50
